STARLINK-34060 (63815 NORAD) Tracking and Keplerian Element Data

This shows tracking and keplerian element data for the satellite.

Feedback or suggestion? Click here.




ElementValue
Catalog63815
NameSTARLINK-34060
Epoch Orbit3637
Epoch Day354.02171873
Epoch Year2025
RAAN262.1988
Inclination43.0007
Eccentricity0.0001782
Argument of Perigee287.8469
Mean Anonmoly72.2189
Mean Motion15.27579453
Decay Rate0.00013958
L11 63815U 25092M 25354.02171873 .00013958 00000+0 51578-3 0 9993
L22 63815 43.0007 262.1988 0001782 287.8469 72.2189 15.27579453 36373



Live tracking and technical data element details for STARLINK-34060 (NORAD 63815). STARLINK-34060 can be tracked NOW for your location showing map with azimuth and elevation plus other details from your city location.







IsCatalogInMostPopularTable: catalog: 63815, numindb: 5
Update: records affected: 1



GetName: 63815 STARLINK-34060

Hit Count: updated at: Mon, 20 Apr 2026 08:49:25 GMT